When you browse on this site, cookies collect data to enhance your experience and personalize the content and advertising you see.
Visit our Privacy Policy to learn more. By continuing to use the site, you agree to this use of cookies and data.
  • In United Kingdom
  • List of Countries
  • For 7 days
  • Water Temperature
  • Satellite Maps
  • Weather Map
  • Weather Widgets
  • user-avatar
    Login

    Hourly Weather Kubla-Ustyurt

    Today, 21 June, Friday

    Time Temperature Precipitation Wind Pressure Humidity
    00:00 +26°C° 0 mm 3 mps 742 mmHg 31%
    01:00 +26°C° 0 mm 3 mps 742 mmHg 30%
    02:00 +26°C° 0 mm 3 mps 742 mmHg 30%
    03:00 +26°C° 0 mm 3 mps 742 mmHg 30%
    04:00 +26°C° 0 mm 3 mps 742 mmHg 31%
    05:00 +27°C° 0 mm 4 mps 742 mmHg 30%
    06:00 +28°C° 0 mm 4 mps 742 mmHg 30%
    07:00 +29°C° 0 mm 4 mps 742 mmHg 30%
    08:00 +30°C° 0 mm 4 mps 743 mmHg 27%
    09:00 +33°C° 0 mm 3 mps 743 mmHg 24%
    10:00 +34°C° 0 mm 3 mps 743 mmHg 21%
    11:00 +35°C° 0 mm 3 mps 743 mmHg 19%
    12:00 +36°C° 0 mm 3 mps 743 mmHg 17%
    13:00 +37°C° 0 mm 3 mps 742 mmHg 14%
    14:00 +37°C° 0 mm 4 mps 742 mmHg 14%
    15:00 +37°C° 0 mm 5 mps 742 mmHg 14%
    16:00 +38°C° 0 mm 6 mps 742 mmHg 15%
    17:00 +36°C° 0 mm 6 mps 742 mmHg 16%
    18:00 +35°C° 0 mm 6 mps 742 mmHg 17%
    19:00 +34°C° 0 mm 6 mps 742 mmHg 18%
    20:00 +33°C° 0 mm 5 mps 742 mmHg 20%
    21:00 +30°C° 0 mm 4 mps 742 mmHg 21%
    22:00 +29°C° 0 mm 3 mps 742 mmHg 23%
    23:00 +29°C° 0 mm 3 mps 742 mmHg 25%

    Tomorrow, 22 June, Saturday

    Time Temperature Precipitation Wind Pressure Humidity
    00:00 +28°C° 0 mm 3 mps 742 mmHg 27%
    01:00 +27°C° 0 mm 2 mps 743 mmHg 29%
    02:00 +27°C° 0 mm 2 mps 743 mmHg 29%
    03:00 +26°C° 0 mm 2 mps 743 mmHg 29%
    04:00 +26°C° 0 mm 1 mps 743 mmHg 29%
    05:00 +27°C° 0 mm 2 mps 744 mmHg 27%
    06:00 +29°C° 0 mm 2 mps 744 mmHg 25%
    07:00 +30°C° 0 mm 3 mps 744 mmHg 23%
    08:00 +33°C° 0 mm 3 mps 745 mmHg 21%
    09:00 +34°C° 0 mm 3 mps 745 mmHg 19%
    10:00 +35°C° 0 mm 4 mps 745 mmHg 17%
    11:00 +36°C° 0 mm 4 mps 745 mmHg 17%
    12:00 +36°C° 0 mm 4 mps 745 mmHg 16%
    13:00 +37°C° 0 mm 4 mps 745 mmHg 15%
    14:00 +36°C° 0 mm 5 mps 745 mmHg 17%
    15:00 +35°C° 0 mm 6 mps 745 mmHg 19%
    16:00 +34°C° 0 mm 8 mps 745 mmHg 21%
    17:00 +33°C° 0 mm 7 mps 745 mmHg 25%
    18:00 +32°C° 0 mm 6 mps 745 mmHg 29%
    19:00 +30°C° 0 mm 6 mps 745 mmHg 33%
    20:00 +29°C° 0 mm 5 mps 745 mmHg 36%
    21:00 +28°C° 0 mm 4 mps 745 mmHg 40%
    22:00 +27°C° 0 mm 4 mps 746 mmHg 43%
    23:00 +27°C° 0 mm 4 mps 746 mmHg 44%

    Day after tomorrow, 23 June, Sunday

    Time Temperature Precipitation Wind Pressure Humidity
    00:00 +27°C° 0 mm 4 mps 746 mmHg 45%
    01:00 +26°C° 0 mm 4 mps 746 mmHg 46%
    02:00 +26°C° 0 mm 5 mps 746 mmHg 50%
    03:00 +25°C° 0 mm 5 mps 746 mmHg 54%
    04:00 +25°C° 0 mm 5 mps 747 mmHg 58%
    05:00 +26°C° 0 mm 6 mps 747 mmHg 53%
    06:00 +27°C° 0 mm 6 mps 747 mmHg 47%
    07:00 +27°C° 0 mm 6 mps 748 mmHg 42%
    08:00 +28°C° 0 mm 7 mps 748 mmHg 38%
    09:00 +29°C° 0 mm 7 mps 748 mmHg 35%
    10:00 +32°C° 0 mm 7 mps 748 mmHg 31%
    11:00 +32°C° 0 mm 7 mps 748 mmHg 31%
    12:00 +32°C° 0 mm 8 mps 748 mmHg 31%
    13:00 +32°C° 0 mm 8 mps 748 mmHg 30%
    14:00 +32°C° 0 mm 8 mps 748 mmHg 30%
    15:00 +32°C° 0 mm 8 mps 748 mmHg 30%
    16:00 +31°C° 0 mm 8 mps 748 mmHg 29%
    17:00 +29°C° 0 mm 8 mps 748 mmHg 33%
    18:00 +28°C° 0 mm 7 mps 748 mmHg 36%
    19:00 +27°C° 0 mm 7 mps 748 mmHg 39%
    20:00 +27°C° 0 mm 6 mps 748 mmHg 41%
    21:00 +26°C° 0 mm 6 mps 748 mmHg 43%
    22:00 +26°C° 0 mm 5 mps 748 mmHg 45%
    23:00 +25°C° 0 mm 5 mps 748 mmHg 45%

    24 June, Monday

    Time Temperature Precipitation Wind Pressure Humidity
    00:00 +25°C° 0 mm 5 mps 748 mmHg 46%
    01:00 +25°C° 0 mm 5 mps 747 mmHg 47%
    02:00 +23°C° 0 mm 5 mps 747 mmHg 51%
    03:00 +23°C° 0 mm 5 mps 747 mmHg 55%
    04:00 +23°C° 0 mm 5 mps 747 mmHg 58%
    05:00 +25°C° 0 mm 5 mps 747 mmHg 51%
    06:00 +26°C° 0 mm 5 mps 747 mmHg 44%
    07:00 +28°C° 0 mm 5 mps 747 mmHg 37%
    08:00 +29°C° 0 mm 5 mps 747 mmHg 32%
    09:00 +30°C° 0 mm 5 mps 747 mmHg 28%
    10:00 +33°C° 0 mm 5 mps 747 mmHg 23%
    11:00 +33°C° 0 mm 5 mps 747 mmHg 22%
    12:00 +34°C° 0 mm 6 mps 747 mmHg 21%
    13:00 +34°C° 0 mm 6 mps 747 mmHg 20%
    14:00 +34°C° 0 mm 6 mps 747 mmHg 20%
    15:00 +33°C° 0 mm 6 mps 747 mmHg 20%
    16:00 +33°C° 0 mm 6 mps 746 mmHg 20%
    17:00 +32°C° 0 mm 6 mps 746 mmHg 23%
    18:00 +30°C° 0 mm 5 mps 746 mmHg 25%
    19:00 +28°C° 0 mm 5 mps 746 mmHg 28%
    20:00 +27°C° 0 mm 5 mps 746 mmHg 31%
    21:00 +26°C° 0 mm 4 mps 746 mmHg 35%
    22:00 +25°C° 0 mm 4 mps 746 mmHg 38%
    23:00 +25°C° 0 mm 4 mps 746 mmHg 39%

    25 June, Tuesday

    Time Temperature Precipitation Wind Pressure Humidity
    00:00 +24°C° 0 mm 3 mps 746 mmHg 40%
    01:00 +24°C° 0 mm 3 mps 745 mmHg 40%
    02:00 +24°C° 0 mm 3 mps 745 mmHg 40%
    03:00 +24°C° 0 mm 3 mps 745 mmHg 41%
    04:00 +24°C° 0 mm 3 mps 745 mmHg 41%
    05:00 +25°C° 0 mm 3 mps 745 mmHg 38%
    06:00 +27°C° 0 mm 2 mps 745 mmHg 36%
    07:00 +28°C° 0 mm 2 mps 745 mmHg 33%
    08:00 +30°C° 0 mm 2 mps 745 mmHg 28%
    09:00 +32°C° 0 mm 2 mps 745 mmHg 23%
    10:00 +35°C° 0 mm 2 mps 745 mmHg 18%
    11:00 +36°C° 0 mm 3 mps 745 mmHg 16%
    12:00 +36°C° 0 mm 4 mps 745 mmHg 15%
    13:00 +37°C° 0 mm 4 mps 744 mmHg 13%
    14:00 +37°C° 0 mm 5 mps 744 mmHg 14%
    15:00 +37°C° 0 mm 5 mps 744 mmHg 15%
    16:00 +37°C° 0 mm 5 mps 743 mmHg 15%
    17:00 +35°C° 0 mm 5 mps 743 mmHg 18%
    18:00 +34°C° 0 mm 5 mps 743 mmHg 21%
    19:00 +33°C° 0 mm 5 mps 742 mmHg 24%
    20:00 +32°C° 0 mm 5 mps 742 mmHg 25%
    21:00 +30°C° 0 mm 5 mps 742 mmHg 26%
    22:00 +29°C° 0 mm 5 mps 742 mmHg 27%
    23:00 +29°C° 0 mm 5 mps 742 mmHg 25%

    26 June, Wednesday

    Time Temperature Precipitation Wind Pressure Humidity
    00:00 +29°C° 0 mm 5 mps 741 mmHg 24%
    01:00 +29°C° 0 mm 5 mps 741 mmHg 23%
    02:00 +29°C° 0 mm 4 mps 741 mmHg 24%
    03:00 +28°C° 0 mm 4 mps 741 mmHg 24%
    04:00 +28°C° 0 mm 3 mps 740 mmHg 25%
    05:00 +29°C° 0 mm 3 mps 740 mmHg 23%
    06:00 +30°C° 0 mm 2 mps 740 mmHg 22%
    07:00 +31°C° 0 mm 1 mps 740 mmHg 21%
    08:00 +34°C° 0 mm 2 mps 740 mmHg 18%
    09:00 +36°C° 0 mm 2 mps 740 mmHg 15%
    10:00 +38°C° 0 mm 3 mps 740 mmHg 12%
    11:00 +39°C° 0 mm 3 mps 739 mmHg 11%
    12:00 +41°C° 0 mm 4 mps 739 mmHg 10%
    13:00 +42°C° 0 mm 5 mps 739 mmHg 10%
    14:00 +42°C° 0 mm 5 mps 738 mmHg 9%
    15:00 +43°C° 0 mm 5 mps 738 mmHg 9%
    16:00 +44°C° 0 mm 6 mps 737 mmHg 9%
    17:00 +42°C° 0 mm 6 mps 737 mmHg 11%
    18:00 +41°C° 0 mm 5 mps 736 mmHg 14%
    19:00 +40°C° 0 mm 5 mps 736 mmHg 16%
    20:00 +37°C° 0 mm 5 mps 736 mmHg 18%
    21:00 +35°C° 0 mm 4 mps 736 mmHg 20%
    22:00 +33°C° 0 mm 3 mps 736 mmHg 22%
    23:00 +32°C° 0 mm 4 mps 735 mmHg 29%
    Show more